Preview of NWS' New Version of Forecast
This preview is not operational and should not be used for support decisions.

Regional Weather Roundup (RWR)

Issued by New York, NY (OKX)

                            
000
ASUS41 KOKX 170514
RWROKX

Regional Weather Roundup
National Weather Service New York NY
1200 AM EST MON DEC 17 2018

Note: "FAIR" indicates few or no clouds below 12,000 feet with no
significant weather and/or obstructions to visibility.

NYZ071-072-176-178-NJZ106-104-170600-
New York City Metro Area
  
CITY           SKY/WX    TMP DP  RH WIND       PRES   REMARKS
Central Park   CLOUDY    38  35  89 MISG      29.79F                  
Bronx Lehman C   N/A     37  34  87 N13G24      N/A  WCI  29          
LaGuardia Arpt CLOUDY    39  34  82 N20       29.77S WCI  29          
Queens College   N/A     37  34  87 N16         N/A  WCI  28          
Kennedy Intl   CLOUDY    38  36  92 N15       29.76F WCI  29          
Breezy Point     N/A     39 N/A N/A N15         N/A  WCI  31          
Brooklyn Coll    N/A     39  34  81 N10         N/A  WCI  32          
Staten Island    N/A     37  36  93 N12         N/A  WCI  30          
Newark/Liberty CLOUDY    38  35  89 N15       29.78F WCI  29          
Teterboro      CLOUDY    39  35  86 N9        29.77F WCI  33          
$$
 
NYZ177-179-078>081-170600-
Long Island New York
  
CITY           SKY/WX    TMP DP  RH WIND       PRES   REMARKS
Jones Beach      N/A     37 N/A N/A N18         N/A  WCI  27          
Wantagh          N/A     37  36  93 N13         N/A  WCI  29          
Hempstead        N/A     37  36  93 NW6       29.78S WCI  33          
Matinecock Pt    N/A     39 N/A N/A N17         N/A  WCI  30          
Farmingdale    CLOUDY    38  36  92 N12       29.73F WCI  30          
MacArthur/ISP  CLOUDY    39  37  92 N15G22    29.71F FOG     WCI  31  
Stony Brook      N/A     37  36  93 N9          N/A  WCI  31          
Shirley        LGT RAIN  38  36  92 N17G25    29.70F FOG     WCI  28  
Mt Sinai Harb    N/A    N/A N/A N/A N16G22      N/A                   
Westhampton    LGT RAIN  40  38  93 N13       29.69F FOG     WCI  32  
East Hampton   DRIZZLE   39  38  95 N13G21    29.65F WCI  32          
Southold         N/A     41  37  87 N15         N/A                   
Montauk          N/A     42  42 100 N14G25    29.64F                  
$$
 
NYZ052-065-067-170600-
Hudson Valley
  
CITY           SKY/WX    TMP DP  RH WIND       PRES   REMARKS
White Plains   LGT RAIN  35  33  92 NW17      29.73F WCI  25          
Larchmont Harb   N/A     36 N/A N/A NW15G21     N/A  WCI  26          
Croton On Huds   N/A     36 N/A N/A N7          N/A  WCI  30          
Somers           N/A     34  32  93 N8          N/A  WCI  27          
Brewster         N/A     34  32  93 N9          N/A  WCI  26          
Newburgh       CLOUDY    36  36 100 E12       29.81F WCI  27          
Montgomery     CLOUDY    35  33  92 NE5       29.79F WCI  31          
Otisville        N/A     36  34  93 NW3         N/A                   
Warwick          N/A     36  34  93 W3          N/A                   
Suffern          N/A     36  34  93 N10         N/A  WCI  28          
Poughkeepsie   CLOUDY    35  32  88 N9        29.80F WCI  28          
Albany         LGTSLEET  34  31  88 NW5       29.85F WCI  30          
$$
 
NJZ001-105-106-008-010-013-015-019>022-104-170600-
New Jersey
  
CITY           SKY/WX    TMP DP  RH WIND       PRES   REMARKS
Newark/Liberty CLOUDY    38  35  89 N15       29.78F WCI  29          
Teterboro      CLOUDY    39  35  86 N9        29.77F WCI  33          
Caldwell       CLOUDY    38  35  89 N6        29.80F WCI  33          
Somerville     CLOUDY    39  35  86 NW7       29.80S WCI  34          
Linden         CLOUDY    38  35  85 N5        29.79S WCI  35          
Perth Amboy      N/A     39 N/A N/A NW14        N/A  WCI  31          
Sussex         CLOUDY    38  35  89 NW7       29.80F WCI  33          
Andover          N/A     37  34  89 N5        29.81S WCI  33          
Trenton        CLOUDY    39  36  89 NW9       29.81S WCI  33          
Millville      CLOUDY    39  38  96 NW13      29.84S FOG     WCI  31  
Atlantic City  CLOUDY    39  39 100 NW13      29.80S FOG     WCI  31  
Wrightstown    CLOUDY    38  36  91 NW12      29.77  WCI  31          
Toms River     CLOUDY    38  37  97 NW12      29.79S WCI  30          
Belmar         CLOUDY    38  35  89 NW12      29.78S WCI  30          
$$
 
PAZ047>061-062-071-170600-
Eastern Pennsylvania
  
CITY           SKY/WX    TMP DP  RH WIND       PRES   REMARKS
Philadelphia   CLOUDY    39  36  89 NW13      29.84F WCI  31          
Allentown      CLOUDY    40  34  79 NW7       29.83F                  
Scranton       CLOUDY    36  34  92 NW3       29.83F                  
$$

CTZ002-004>006-009-010-012-RIZ004-006-007-MAZ004-011-015-170600-
Southern New England

 In CT
  
CITY           SKY/WX    TMP DP  RH WIND       PRES   REMARKS
Bradley Intl   LGT RAIN  35  33  92 N14G21    29.75F WCI  26          
Hartford       LGT RAIN  37  34  89 N13G18    29.75F WCI  29          
Danbury        CLOUDY    36  33  89 N7        29.76F FOG     WCI  30  
Wtrbury/Oxford CLOUDY    35  34  96 N15G22    29.72F WCI  25          
Norwalk Harbor   N/A     36 N/A N/A NW13        N/A  WCI  27          
Bridgeport     CLOUDY    39  35  86 N12       29.73F WCI  32          
Meriden        CLOUDY    37  34  89 N16G22    29.73  WCI  28          
New Haven      CLOUDY    39  36  89 N14G24    29.70F WCI  31          
Chester        LGT RAIN  37  36  93 N13       29.68F WCI  29          
Groton         LGT RAIN  41  39  93 N16G22    29.65F                  
Willimantic    CLOUDY    37  36  96 N10       29.72F WCI  30          

 In RI
  
CITY           SKY/WX    TMP DP  RH WIND       PRES   REMARKS
Providence     LGT RAIN  40  39  97 NE18      29.69F FOG     WCI  31  
Block Island   CLOUDY    42  40  92 NE23G37   29.62F                  
Westerly       LGT RAIN  43  40  89 N15G23    29.65F                  
 
In MA
  
CITY           SKY/WX    TMP DP  RH WIND       PRES   REMARKS
Boston         LGT RAIN  41  38  89 NE22G28   29.75F FOG              
Worcester      MIX PCPN  32  32 100 NE17G25   29.71F FOG     WCI  21  
Westfield      FLURRIES  35  32  88 N15       29.76F WCI  25          
Provincetown   LGT RAIN  42  41  96 NE22G32   29.69F FOG              
Nantucket      RAIN      46  45  96 NE15      29.58F FOG              
$$

ANZ330-335-338-340-345-350-353-355-170600-
Coastal Marine Observations

  
STATION/POSITION TIME  SKY/WX   TEMP    WIND        PRES    VSBY  WAVE
                                AIR SEA DIR/SP/G                  HT/PER
                 (UTC)          (F)     (DEG/KT/KT) (MB)    (MI)  (FT/S)
NY Harb Entrance 0450            40 48  340/ 21/ 27 1007.3          8/ 9
20 S Fire Island 0450            42 49  350/ 23/ 29 1004.9         10/10
Great South Bay  NOT AVBL
23 SSW Montauk P 0450            44 50  360/ 27/ 33 1002.1         10/ 9
15 E Barnegat Li 0500               51                N/A          10/ 9
Hudson Canyon    0450            47      10/ 21/ 27 1002.7         10/ 9
Kings Point      0448               42                N/A
Execution Rocks  0430               42  340/ 14/ 17   N/A
Western LI Sound 0445            38     350/ 16/ 19   N/A           2/ 5
Central LI Sound 0445            40 45  360/ 17/ 21   N/A           3/ 3
Robbins Reef     0448            38     350/ 13/ 18 1008.8
$$


>>>>>>>>>>>>>>>>>>>>>>>>>>>> KEY <<<<<<<<<<<<<<<<<<<<<<<<<<<
>                                                          <
>     SKY/WX - Sky Condition/Present Weather               <
>     TMP    - Temperature in Fahrenheit                   <
>     DP     - Dew Point in Fahrenheit                     <
>     RH     - Relative Humidity in Percent                <
>     WIND   - Direction (from) and Speed in MPH           <
>     PRES   - Mean Sea Level Pressure (inches of Hg)      <
>     WCI    - Wind Chill Index                            <
>     VSB    - Visibility in Miles                         <
>     HX     - Heat Index                                  <
>     TC     - Temperature in Celsius                      <
>     VRB    - Variable Wind Direction                     <
>                                                          <
>>>>>>>>>>>>>>>>>>>>>>>>>>>> KEY <<<<<<<<<<<<<<<<<<<<<<<<<<<